This is the latest recevied weather packets stored in our database for station/object K4XP. If no packets are shown the sender has not sent any weather packets the latest 10 day(s).
| Time | Temp. | Humidity | Pressure | Rain* | Wind** | Luminosity | Snow |
|---|---|---|---|---|---|---|---|
| 1788465636 | 36.67° C | 51% | 1016.4 hPa | 0 mm | - | - | - |
| 1788464412 | 36.11° C | 49% | 1016.6 hPa | 0 mm | - | - | - |
| 1788464119 | 36.11° C | 52% | 1016.7 hPa | 0 mm | - | - | - |
| 1788463831 | 36.11° C | 52% | 1016.8 hPa | 0 mm | - | - | - |
| 1788463219 | 36.11° C | 51% | 1016.9 hPa | 0 mm | - | - | - |
| 1788462630 | 35.56° C | 53% | 1016.9 hPa | 0 mm | - | - | - |
| 1788462025 | 35.56° C | 56% | 1017.1 hPa | 0 mm | - | - | - |
| 1788461412 | 35.56° C | 54% | 1017.2 hPa | 0 mm | - | - | - |
| 1788459922 | 35.56° C | 52% | 1017.4 hPa | 0 mm | - | - | - |
| 1788459013 | 35.56° C | 53% | 1017.4 hPa | 0 mm | - | - | - |
| 1788458720 | 35.56° C | 53% | 1017.5 hPa | 0 mm | - | - | - |
| 1788458431 | 35.56° C | 51% | 1017.5 hPa | 0 mm | - | - | - |
| 1788458131 | 35.56° C | 54% | 1017.6 hPa | 0 mm | - | - | - |
| 1788457811 | 35.56° C | 55% | 1017.6 hPa | 0 mm | - | - | - |
| 1788457518 | 35° C | 55% | 1017.7 hPa | 0 mm | - | - | - |
| 1788457225 | 35° C | 54% | 1017.7 hPa | 0 mm | - | - | - |
| 1788456926 | 35° C | 53% | 1017.7 hPa | 0 mm | - | - | - |
| 1788456616 | 35° C | 56% | 1017.9 hPa | 0 mm | - | - | - |
| 1788455429 | 34.44° C | 57% | 1018.2 hPa | 0 mm | - | - | - |
| 1788452730 | 33.89° C | 60% | 1018.6 hPa | 0 mm | - | - | - |
| 1788451817 | 33.33° C | 64% | 1018.7 hPa | 0 mm | - | - | - |
| 1788451526 | 33.33° C | 61% | 1018.7 hPa | 0 mm | - | - | - |
| 1788451229 | 33.33° C | 61% | 1018.7 hPa | 0 mm | - | - | - |
| 1788450915 | 33.33° C | 62% | 1018.7 hPa | 0 mm | - | - | - |
| 1788450617 | 33.33° C | 65% | 1018.7 hPa | 0 mm | - | - | - |
* Rain latest hour (hover to see other rain measurements)
** Current wind speed in m/s (hover to see current wind gust speed)